Regional Weather Roundup
Issued by NWS Pendleton, OR

Home | Current Version | Previous Version | Text Only | Print | Product List | Glossary On
Versions: 1 2 3 4 5 6 7 8 9 10 11 12 13 14 15 16 17 18 19 20 21 22 23 24 25 26 27 28 29 30 31 32 33 34 35 36 37 38 39 40 41 42 43 44 45 46 47 48 49 50
000
ASUS46 KPDT 281810
RWRPDT
PENDLETON REGIONAL WEATHER ROUNDUP
NATIONAL WEATHER SERVICE PENDLETON OREGON
1100 AM PDT TUE JUL 28 2015

NOTE: FAIR INDICATES FEW OR NO CLOUDS BELOW 12,000 FEET WITH NO
SIGNIFICANT WEATHER AND/OR OBSTRUCTIONS TO VISIBILITY.

# INDICATES UNOFFICIAL STATION AND DATA

WAZ520-281910-
EAST SLOPES OF WASHINGTON CASCADES

CITY            SKY/WX      TMP DP  RH  WIND    PRES   REMARKS
#BULLFROG 2SW   N/A         70  44  39  N3      27.83S
#BUMPING DAM    N/A         62  N/A N/A S2      N/A
#CLE ELUM HS    N/A         69  40  35  N3      30.17S
#CLE ELUM LAKE  N/A         70  42  36  CALM    30.16S
#CLIFFDEL 2NW   N/A         65  41  41  W1      N/A
#EASTON DOT     N/A         65  31  28  N5      N/A
#GLENWOOD       N/A         68  51  55  CALM    30.20F
#MANASTASH CYN  N/A         66  41  40  NW2     30.21R
#NELSON         N/A         70  48  46  CALM    30.18F
#NELSON 3SW     N/A         67  46  47  CALM    30.37S
#NILE           N/A         70  43  38  W2      29.45F
#PEOH POINT     N/A         62  44  52  SW2     N/A
#RONALD 2NW     N/A         66  46  48  SW1     30.11S
#SNOWDEN        N/A         64  29  27  S2      N/A
#SOUTH BLEWITT  N/A         N/A N/A N/A CALM    N/A
#TEANAWAY 4NE   N/A         70  46  42  SW3     N/A
#TROUT LAKE 1NE N/A         68  45  44  E3      30.19F
$$

WAZ521-281910-
SIMCOE HIGHLANDS

CITY            SKY/WX      TMP DP  RH  WIND    PRES   REMARKS
#BICKLETON HS   N/A         66  31  27  E2      N/A
#SATUS PASS DOT N/A         68  38  33  CALM    N/A
#CENTERVILLE 4W N/A         70  47  44  W2      29.98F
#CENTERVILLE 1SWN/A         68  46  45  S2      30.15
#GOLDENDALE     N/A         67  45  45  W1      N/A
#GOLDENDALE 1NE N/A         68  35  29  CALM    N/A
#GOLDENDALE 5WNWN/A         70  46  42  SE2     30.17F
#GOODNOE HILLS  N/A         75  47  37  SW10    N/A
#LYLE 6NE       N/A         67  49  52  CALM    30.16F
$$

WAZ026-281910-
KITTITAS VALLEY

CITY            SKY/WX      TMP DP  RH  WIND    PRES   REMARKS
ELLENSBURG AP   SUNNY       75  40  28  CALM    30.22F
6HR MIN TEMP:   57; 6HR MAX TEMP:   75;

YTC-OPS AREA    N/A         67  37  33  S3      30.24S
6HR MIN TEMP:   51; 6HR MAX TEMP:   67;

#ELLENSBURG CWU N/A         75  44  33  CALM    30.13S
#ELLENSBURG 3NE N/A         69  46  44  CALM    30.22S
#ELLENSBURG 1E  N/A         70  45  41  CALM    N/A
#KITTITAS 3S    N/A         69  51  53  CALM    30.16S
#THORP 6N       N/A         69  42  37  W1      30.19F
$$

WAZ027-281910-
YAKIMA VALLEY

CITY            SKY/WX      TMP DP  RH  WIND    PRES   REMARKS
SUNNYSIDE AP    SUNNY       72  46  39  CALM    30.22S
YAKIMA AIRPORT  SUNNY       76  40  27  VRB3    30.22S
6HR MIN TEMP:   53; 6HR MAX TEMP:   77;

#DONALD 2NE     N/A         82   9   6  S1      29.06S
#GRANDVIEW      N/A         73  46  38  NW2     30.21S
#MABTON         N/A         72  49  44  CALM    30.22R
#MOXEE 2E       N/A         76  15  10  SW1     30.09F
#NACHES 2SW     N/A         72  47  41  E1      30.24R
#TERRACE HTS    N/A         73  42  33  CALM    30.14S
#TOPPENISH      N/A         72  45  38  N2      30.11S
#WAPATO 4NE     N/A         82   9   6  S1      29.06S
#WEST VALLEY    N/A         72  44  37  CALM    30.16S
#WHITE SWAN 5E  N/A         72  46  39  E6      30.19S
#WILEY CITY 3W  N/A         75  34  22  CALM    30.19S
$$

WAZ028-281910-
LOWER COLUMBIA BASIN...WASHINGTON

CITY            SKY/WX      TMP DP  RH  WIND    PRES   REMARKS
PASCO           SUNNY       75  46  36  CALM    30.21F
6HR MIN TEMP:   48; 6HR MAX TEMP:   76;

RICHLAND AWOS   SUNNY       77  46  33  CALM    30.21S
#BASIN CITY 5SW N/A         74  52  46  S2      30.21S
#BENTON CITY    N/A         73  49  43  SW1     30.10S
#CONNELL 5N     N/A         74  46  37  SW1     30.19S
#CONNELL 5NW    N/A         71  47  42  SW3     30.16S
#ELTOPIA 6NW    N/A         70  49  47  S3      29.19R
#KAHLOTUS       N/A         71  43  36  NW12    30.18F
#KENNEWICK      N/A         70  44  39  N3      27.83S
#KENNEWICK 3S   N/A         75  47  37  N1      30.19S
#PATERSON       N/A         71  51  49  SE2     30.19S
#PROSSER DOT    N/A         72  46  39  CALM    N/A
#PROSSER        N/A         71  44  38  NW2     30.19S
#SAGEMOOR 2W    N/A         74  54  50  CALM    30.05S
#TOUCHET 2S     N/A         78  52  40  NE2     30.17F
#WEST PASCO     N/A         76  53  45  E1      30.20F
$$

WAZ029-281910-
FOOTHILLS OF THE BLUES...WASHINGTON

CITY            SKY/WX      TMP DP  RH  WIND    PRES   REMARKS
WALLA WALLA AP  SUNNY       73  42  33  S6      30.23S
6HR MIN TEMP:   55; 6HR MAX TEMP:   73;

#DAYTON SCHOOL  N/A         71  38  30  SE5     30.22S
#LOWDEN 2SE     N/A         76  51  42  NW2     30.18S
#PLEASANT VIEW 1N/A         73  42  33  SW5     30.23S
#PRESCOTT       N/A         75  47  37  W2      30.20S
#SUDBURY        N/A         76  N/A N/A CALM    N/A
#WHITMAN COLLEGEN/A         72  46  39  CALM    30.24F
#WAITSBURG 8N   N/A         74  25  16  S6      30.06S
#WALLA WALLA U  N/A         73  47  40  CALM    30.19F
#WHITMAN MISSIONN/A         74  47  38  SW2     30.20F
$$

WAZ030-281910-
BLUE MOUNTAINS...WASHINGTON

CITY            SKY/WX      TMP DP  RH  WIND    PRES   REMARKS
$$

ORZ009-041-WAZ024-281910-
COLUMBIA RIVER GORGE

CITY            SKY/WX      TMP DP  RH  WIND    PRES   REMARKS
HOOD RIVER AP   SUNNY       70  50  49  N3      30.22F
THE DALLES AP   SUNNY       74  47  38  CALM    30.20F
6HR MIN TEMP:   55; 6HR MAX TEMP:   75;

#ARLINGTON AIRPON/A         72  46  39  NW2     29.81S
#MARYHILL       N/A         70  47  44  CALM    N/A
#MOSIER 1S      N/A         71  40  32  N7      30.23S
#MURDOCK        N/A         72  53  51  W3      30.20F

$$

ORZ510-281910-
NORTH CENTRAL OREGON

CITY            SKY/WX      TMP DP  RH  WIND    PRES   REMARKS
#CHENOWITH 1W   N/A         70  46  42  E5      N/A
#COW CYN RST AREN/A         64  N/A N/A NW1     N/A
#DUFUR 9E       N/A         65  46  50  NE3     30.23F
#GRASS VALLEY 1SN/A         71  46  41  SE2     30.20F
#MAUPIN SCHOOL  N/A         72  49  44  CALM    30.22F
#MORO SCHOOL    N/A         69  51  53  NW3     30.24S
#SHANIKO 4NW    N/A         67  38  34  S5      30.28S
#TYGH VALLEY 2NEN/A         70  48  46  CALM    30.19F
#WAPANITIA AIRPON/A         70  45  41  N1      30.19F
#WASCO 5NE      N/A         72  48  43  NW2     30.19S
$$

ORZ511-281910-
CENTRAL OREGON

CITY            SKY/WX      TMP DP  RH  WIND    PRES   REMARKS
BEND AIRPORT    SUNNY       66  36  33  CALM    30.26F
MADRAS AIRPORT  SUNNY       66  41  40  MISG    30.27F
PRINEVILLE AP   SUNNY       68  39  35  CALM    30.26F
REDMOND AIRPORT SUNNY       67  39  36  CALM    30.25F
6HR MIN TEMP:   36; 6HR MAX TEMP:   68;

#BEND 1SW       N/A         67  42  40  NE2     N/A
#BEND-AWBREY    N/A         65  44  46  NE3     30.17S
#BEND-KIM LN    N/A         66  45  47  CALM    30.25S
#CROOKED RVR RANN/A         71  44  38  CALM    30.16F
#CULVER         N/A         65  44  46  W2      30.21F
#LAKE BILLY CHINN/A         66  -7   5  NE9     30.23F
#POWELL BUTTE 3EN/A         62  43  50  NW3     N/A
#POWELL BUTTE   N/A         70  47  44  N5      29.87F
#PRINEVILLE 3N  N/A         67  46  47  E1      30.14F
#WARM SPRINGS   N/A         70  46  42  CALM    30.19F

$$


ORZ509-281910-
EAST SLOPES OF OREGON CASCADES

CITY            SKY/WX      TMP DP  RH  WIND    PRES   REMARKS
#CAMP SHERMAN   N/A         71  42  35  CALM    30.18F
#LA PINE 4NW    N/A         63  42  46  CALM    30.22F
#SISTERS AIRPOR N/A         64  49  58  N1      30.17S
#SISTERS 3N     N/A         67  45  45  CALM    30.37S
#SUNRIVER       N/A         66  40  38  S2      30.06F
#TUMALO 3W      N/A         63  42  46  E5      30.06F
#WANOGA BUTTE D N/A         55  32  41  W6      N/A

$$

ORZ044-281910-
LOWER COLUMBIA BASIN...OREGON

CITY            SKY/WX      TMP DP  RH  WIND    PRES   REMARKS
HERMISTON       SUNNY       75  46  36  NW3     30.21F
6HR MIN TEMP:   49; 6HR MAX TEMP:   75;

#BOARDMAN SCHOOLN/A         71  50  47  NW3     30.22S
#BOARDMAN 8SW   N/A         74  49  41  W3      30.19S
#ECHO 8SW       N/A         75  45  34  NW3     30.22F
#IONE SCHOOL    N/A         72  44  37  W2      30.18F
#IRRIGON 4NW    N/A         73  53  49  NW2     N/A
#UMATILLA       N/A         75  48  38  N1      30.13F
$$

ORZ507-281910-
NORTHERN FOOTHILLS OF THE BLUES

CITY            SKY/WX      TMP DP  RH  WIND    PRES   REMARKS
PENDLETON AIRPT SUNNY       73  42  33  NW5     30.23F
6HR MIN TEMP:   49; 6HR MAX TEMP:   73;

#ADAMS 3WNW     N/A         71  44  38  S1      30.20F
#ATHENA         N/A         70  45  41  CALM    30.22F
#CAYUSE         N/A         72  44  37  SE2     30.19F
#HELIX SCHOOL   N/A         68  43  40  CALM    30.19F
#HELIX 3N       N/A         69  42  37  N3      30.20F
#HOLDMAN 5SE    N/A         72  46  39  SW5     30.22F
#HOLDMAN 6E     N/A         71  45  39  CALM    30.01S
#M-F GROVE ELEM N/A         74  39  28  CALM    30.21S
#M-FREEWATER 5SEN/A         71  45  39  W2      30.22S
#PENDLETON DNTN N/A         74  43  33  W2      30.19S
#PDT AQUATIC CTRN/A         70  45  41  CALM    30.21S
#PDT SUNRIDGE   N/A         72  43  35  NW3     30.24F
#PENDLETON 7NW  N/A         76  52  43  CALM    N/A
#PILOT ROCK     N/A         70  41  35  CALM    30.24F
#TUTUILLA       N/A         72  43  35  CALM    30.21F
#UMAPINE 2E     N/A         75  52  45  CALM    30.19F
#WESTON SCHOOL  N/A         68  37  32  CALM    30.13F

$$

ORZ508-281910-
SOUTHERN FOOTHILLS OF THE BLUES

CITY            SKY/WX      TMP DP  RH  WIND    PRES   REMARKS
#AJAX           N/A         68  39  35  CALM    30.16S
#CONDON SCHOOL  N/A         66  42  42  S2      30.20S
#CONDON 5W      N/A         64  38  38  SW5     30.23S
#FOSSIL SCHOOL  N/A         67  42  40  W1      30.18F
#HEPPNER EOC    N/A         72  43  35  CALM    30.12F
#HEPPNER 4NE    N/A         68  43  40  CALM    30.18F
#LEXINGTON 2SE  N/A         73  45  37  CALM    30.20F
#OLEX 4N        N/A         70  46  42  SW3     30.20F
#RUGGS 5NE      N/A         72  43  35  VRB3    30.43S
#RUGGS 2SW      N/A         69  43  39  N1      30.20F

$$

ORZ502-503-281910-
BLUE MOUNTAINS

CITY            SKY/WX      TMP DP  RH  WIND    PRES   REMARKS
MEACHAM         MOSUNNY     68  39  35  CALM    30.29S
#HEPPNER 15SE   N/A         66  41  40  NW3     30.19F
#LONG CREEK HS  N/A         64  43  46  CALM    30.24F
#PIKES PEAK     N/A         60  41  49  SW9     27.99S
#TOLLGATE       N/A         57  40  53  W1      30.15R
#TROY SCHOOL    N/A         72  44  37  CALM    30.03F
#UKIAH          N/A         65  43  45  CALM    30.27F
#WESTON 4E      N/A         66  41  40  S2      30.16S
$$

ORZ505-281910-
JOHN DAY BASIN

CITY            SKY/WX      TMP DP  RH  WIND    PRES   REMARKS
JOHN DAY        SUNNY       68  37  32  CALM    30.28F
#JOHN DAY KJDY  N/A         69  39  33  CALM    30.25
#DAYVILLE SCHOOLN/A         69  39  33  E1      30.21F
#MITCHELL       N/A         70  47  44  CALM    30.39S
#MONUMENT HS    N/A         69  41  36  N1      30.23F
#MT. VERNON 5SE N/A         64  39  40  CALM    30.24F
#WINLOCK        N/A         70  41  35  NE10    30.33F
$$

ORZ506-281910-
OCHOCO AND JOHN DAY HIGHLANDS

CITY            SKY/WX      TMP DP  RH  WIND    PRES   REMARKS
#HORSE RIDGE DO N/A         64  33  31  NE2     N/A
#KEYES SMT DOT  N/A         64  39  40  E6      N/A
#PAULINA SCHOOL N/A         69  40  35  CALM    30.23S
#PINE MTN OBS   N/A         56  34  43  E1      N/A
#PRAIRIE CITY   N/A         69  39  33  CALM    30.16F
#SENECA         N/A         63  N/A N/A NW2     N/A
#SENECA 9NW     N/A         60  32  35  NE1     30.22F
$$

ORZ049-281910-
GRANDE RONDE VALLEY

CITY            SKY/WX      TMP DP  RH  WIND    PRES   REMARKS
LA GRANDE       SUNNY       68  37  32  SE5     30.27F
#COVE           N/A         66  46  48  CALM    30.28S
#COVE SCHOOL    N/A         71  43  36  CALM    30.28S
#COVE 6NW       N/A         65  42  43  CALM    30.27F
#ELGIN 3N       N/A         70  42  36  NE1     30.22F
#ELGIN 1E       N/A         67  42  40  CALM    N/A
#IMBLER SCHOOL  N/A         66  43  43  SE3     30.20F
#ISLAND CITY 4N N/A         69  55  61  CALM    30.22F
#LA GRANDE ELEM N/A         68  43  40  CALM    30.26F
#UNION 1S       N/A         67  44  43  CALM    30.13F
$$

ORZ050-281910-
WALLOWA COUNTY

CITY            SKY/WX      TMP DP  RH  WIND    PRES   REMARKS
#IMNAHA SCHOOL  N/A         74  40  29  S2      30.21F
#IMNAHA 10S     N/A         74  39  28  NE3     30.23F
#JOSEPH 3N      N/A         65  34  31  NE1     30.28S
#JOSEPH 3W      N/A         65  37  35  E6      30.12S
#LOSTINE        N/A         67  41  39  NE1     30.03S
#MT HOWARD 8000 N/A         45  33  63  E2      30.42S
#PROMISE 1S     N/A         65  41  41  CALM    30.28F
#WALLOWA SCHOOL N/A         67  40  37  CALM    30.22F



$$



USA.gov is the U.S. government's official web portal to all federal, state and local government web resources and services.